Regional Weather Roundup
Issued by NWS Raleigh/Durham, NC

Home | Current Version | Previous Version | Text Only | Print | Product List | Glossary On
Versions: 1 2 3 4 5 6 7 8 9 10 11 12 13 14 15 16 17 18 19 20 21 22 23 24 25 26 27 28 29 30 31 32 33 34 35 36 37 38 39 40 41 42 43 44 45 46 47 48 49 50
000
ASUS42 KRAH 280210
RWRRAH
NORTH CAROLINA WEATHER ROUNDUP
NATIONAL WEATHER SERVICE RALEIGH NC
1000 PM EDT MON APR 27 2015

NOTE: "FAIR" INDICATES FEW OR NO CLOUDS BELOW 12,000 FEET WITH NO
SIGNIFICANT WEATHER AND/OR OBSTRUCTIONS TO VISIBILITY.

NCZ001-053-055-056-065-067-280300-
WESTERN NORTH CAROLINA

CITY           SKY/WX    TMP DP  RH WIND       PRES   REMARKS
ASHEVILLE      PTCLDY    53  32  44 N5        29.95R
JEFFERSON      CLEAR     47  25  41 W3        29.94R
MORGANTON      CLEAR     54  32  44 N5        29.99R
HICKORY        CLEAR     53  31  42 N3        29.94R
RUTHERFORDTON  PTCLDY    57  33  40 NE3       29.94R
MOUNT AIRY     CLEAR     49  36  61 CALM      29.95R
BOONE          CLEAR     43  29  58 CALM      29.97R
$$

NCZ021-022-025-041-071-084-088-280300-
CENTRAL NORTH CAROLINA

CITY           SKY/WX    TMP DP  RH WIND       PRES   REMARKS
CHARLOTTE      PTCLDY    58  32  37 NE7       29.93R
GREENSBORO     PTCLDY    52  30  43 CALM      29.93R
WINSTON-SALEM  CLEAR     52  31  44 CALM      29.95R
RALEIGH-DURHAM PTCLDY    56  31  38 VRB3      29.91R
FORT BRAGG     MOCLDY    60  33  36 N7        29.89R
FAYETTEVILLE   MOCLDY    61  34  36 N13       29.89R
BURLINGTON     CLEAR     54  32  43 NW5       29.92R
LAURINBURG     MOCLDY    59  37  44 N10       29.90R
$$

NCZ011-015-027-028-043-044-047-080-103-280300-
NORTHEASTERN NORTH CAROLINA

CITY           SKY/WX    TMP DP  RH WIND       PRES   REMARKS
ROCKY MT-WILSO PTCLDY    57  39  51 N7        29.89R
GREENVILLE     PTCLDY    59  37  44 N12       29.89R
WASHINGTON     CLOUDY    58  38  47 N9        29.87R
ELIZABETH CITY LGT RAIN  54  43  66 NW5       29.86R
MANTEO         CLOUDY    53  40  61 N3        29.85R
CAPE HATTERAS  PTCLDY    50  38  63 NE5       29.83R
$$

NCZ078-087-090-091-093-098-101-280300-
SOUTHEASTERN NORTH CAROLINA

CITY           SKY/WX    TMP DP  RH WIND       PRES   REMARKS
LUMBERTON      MOCLDY    59  40  49 N9        29.88R
GOLDSBORO      CLOUDY    61  36  39 NW10      29.85R
KINSTON        MOCLDY    57  41  54 NW3       29.87R
KENANSVILLE    MOCLDY    59  39  48 N3        29.88R
NEW BERN       MOCLDY    61  39  44 N8        29.86R
CHERRY POINT   PTCLDY    61  39  44 N9        29.85R
BEAUFORT       PTCLDY    59  45  59 N6        29.84R
JACKSONVILLE   MOCLDY    59  41  51 N10       29.85R
WILMINGTON     MOCLDY    57  52  83 CALM      29.86R
$$




USA.gov is the U.S. government's official web portal to all federal, state and local government web resources and services.